This demonstration page uses our WeatherBlox Daily Observations layout. Learn more.

Left ArrowRight Arrow

Hourly Observations for October 23, 2021

Temp ( °F °C ) Dew Point ( °F °C ) Humidity (%) Winds ( mph kmh ) Pressure ( in mb ) Visibility ( mi km ) Precip ( " mm )
12:15 am 00:15 Clear 44 6.4 38 3.5 82 82 E 8 13 29.94 1014 10 16 N/A
12:35 am 00:35 Clear 43 6.3 38 3.4 82 82 ENE 8 13 29.95 1014 10 16 N/A
12:55 am 00:55 Clear 42 5.5 37 3 84 84 NE 7 11 29.95 1014 10 16 N/A
1:15 am 01:15 Clear 41 5 37 2.7 85 85 E 6 9 29.96 1014 10 16 N/A
1:35 am 01:35 Clear 40 4.6 37 2.5 86 86 ENE 6 9 29.95 1014 10 16 N/A
1:55 am 01:55 Clear 40 4.2 36 2.1 86 86 E 7 11 29.96 1014 10 16 N/A
2:15 am 02:15 Clear 40 4.2 36 2 86 86 ENE 7 11 29.95 1014 10 16 N/A
2:35 am 02:35 Clear 40 4.4 36 2 85 85 E 7 11 29.94 1014 10 16 N/A
2:55 am 02:55 Clear 40 4.3 36 2 85 85 ENE 6 9 29.94 1014 10 16 N/A
3:15 am 03:15 Clear 40 4.4 36 2 85 85 E 7 11 29.94 1014 10 16 N/A
3:35 am 03:35 Clear 40 4.5 36 2 84 84 E 9 15 29.93 1014 10 16 N/A
3:55 am 03:55 Clear 40 4.5 35 1.7 82 82 E 8 13 29.93 1014 10 16 N/A
4:15 am 04:15 Clear 39 4 35 1.5 84 84 ENE 7 11 29.93 1013 10 16 N/A
4:35 am 04:35 Clear 39 4 35 1.5 84 84 E 7 11 29.92 1013 10 16 N/A
4:55 am 04:55 Clear 38 3.5 34 1.2 85 85 ENE 6 9 29.93 1014 10 16 N/A
5:15 am 05:15 Clear 38 3.2 34 1.1 86 86 ENE 6 9 29.93 1013 10 16 N/A
5:35 am 05:35 Clear 38 3.2 34 1.3 88 88 E 8 13 29.93 1013 10 16 N/A
5:55 am 05:55 Clear 38 3.1 34 1.3 88 88 ENE 8 13 29.93 1013 10 16 N/A
6:15 am 06:15 Clear 37 2.9 34 1.2 89 89 E 7 11 29.94 1014 10 16 N/A
6:35 am 06:35 Clear 38 3.1 34 1.3 88 88 ENE 8 13 29.93 1013 10 16 N/A
6:55 am 06:55 Clear 38 3.1 34 1.3 88 88 E 7 11 29.94 1014 10 16 N/A
7:15 am 07:15 Clear 38 3.1 35 1.5 89 89 E 7 11 29.93 1013 10 16 N/A
7:35 am 07:35 Clear 37 2.9 34 1.2 89 89 E 7 11 29.93 1013 10 16 N/A
7:55 am 07:55 Clear 36 2.4 34 1.1 91 91 ENE 5 7 29.93 1014 10 16 N/A
8:15 am 08:15 Sunny 37 2.5 35 1.4 93 93 E 6 9 29.93 1014 10 16 N/A
8:35 am 08:35 Sunny 37 3 35 1.7 91 91 E 8 13 29.93 1013 10 16 N/A
8:55 am 08:55 Sunny 39 3.7 36 2 89 89 E 10 17 29.93 1014 10 16 N/A
9:15 am 09:15 Sunny 40 4.5 36 2.1 85 85 E 14 22 29.91 1013 10 16 N/A
9:35 am 09:35 Sunny 41 4.8 36 2.4 85 85 E 13 20 29.91 1013 10 16 N/A
9:55 am 09:55 Sunny 42 5.8 37 2.6 80 80 E 10 17 29.90 1013 10 16 N/A
10:15 am 10:15 Mostly Cloudy 43 6.1 37 2.7 79 79 E 12 19 29.90 1012 10 16 N/A
10:35 am 10:35 Cloudy 44 6.5 38 3.2 80 80 ESE 12 19 29.89 1012 10 16 N/A
10:55 am 10:55 Cloudy 45 7.1 38 3.6 79 79 E 10 17 29.89 1012 10 16 N/A
11:15 am 11:15 Cloudy 46 7.5 39 3.9 78 78 E 8 13 29.87 1012 10 16 N/A
11:35 am 11:35 Cloudy 46 7.8 39 4 77 77 E 9 15 29.87 1012 10 16 N/A
11:55 am 11:55 Cloudy 48 8.9 40 4.5 74 74 E 6 9 29.85 1011 10 16 N/A
12:15 pm 12:15 Cloudy 49 9.4 41 4.8 73 73 E 7 11 29.85 1011 10 16 N/A
12:35 pm 12:35 Cloudy 50 10.2 41 5.1 71 71 E 7 11 29.84 1010 10 16 N/A
12:55 pm 12:55 Cloudy 52 11 42 5.4 69 69 E 7 11 29.82 1010 10 16 N/A
1:15 pm 13:15 Cloudy 52 11.1 42 5.5 69 69 E 6 9 29.82 1010 10 16 N/A
1:35 pm 13:35 Cloudy 53 11.5 42 5.8 68 68 ENE 7 11 29.81 1009 10 16 N/A
1:55 pm 13:55 Cloudy 54 12.3 44 6.4 68 68 E 6 9 29.79 1009 10 16 N/A
2:15 pm 14:15 Cloudy 55 12.6 45 7 69 69 ESE 8 13 29.78 1008 10 16 N/A
2:35 pm 14:35 Cloudy 55 12.7 45 7.1 69 69 ESE 8 13 29.77 1008 10 16 N/A
2:55 pm 14:55 Cloudy 55 12.6 45 7.1 69 69 E 10 17 29.76 1008 10 16 N/A
3:15 pm 15:15 Cloudy 55 12.7 45 7.2 69 69 E 12 19 29.75 1007 10 16 N/A
3:35 pm 15:35 Cloudy 55 12.7 45 7.3 70 70 E 10 17 29.74 1007 10 16 N/A
3:55 pm 15:55 Cloudy 54 12.4 46 7.5 72 72 E 13 20 29.74 1007 10 16 N/A
4:15 pm 16:15 Cloudy 55 12.5 45 7.2 70 70 E 13 20 29.73 1007 10 16 N/A
4:35 pm 16:35 Cloudy 54 12.2 46 7.5 73 73 E 12 19 29.73 1007 10 16 N/A
4:55 pm 16:55 Cloudy 55 12.5 46 7.6 72 72 E 15 24 29.73 1007 10 16 N/A
5:15 pm 17:15 Cloudy 54 12.4 46 7.6 73 73 E 10 17 29.73 1007 10 16 N/A
5:35 pm 17:35 Cloudy 54 12.3 46 7.8 74 74 E 15 24 29.74 1007 10 16 N/A
5:55 pm 17:55 Cloudy with Haze 52 11 47 8.5 85 85 E 15 24 29.74 1007 5 8 N/A
6:15 pm 18:15 Cloudy with Mist and Fog 51 10.4 48 9 91 91 E 13 20 29.75 1007 3 4 N/A
6:35 pm 18:35 Cloudy with Mist and Fog 50 10 48 9 94 94 E 8 13 29.75 1007 3 5 N/A
6:55 pm 18:55 Cloudy 50 10.1 48 8.7 91 91 E 8 13 29.75 1007 10 16 N/A
7:15 pm 19:15 Cloudy 51 10.5 47 8.4 87 87 E 6 9 29.75 1007 10 16 N/A
7:35 pm 19:35 Cloudy 51 10.6 47 8.2 85 85 E 6 9 29.76 1008 10 16 N/A
7:55 pm 19:55 Cloudy with Drizzle 51 10.3 47 8.5 89 89 N N/A 29.76 1008 7 11 N/A
8:15 pm 20:15 Cloudy 50 10.1 47 8.6 91 91 NE 7 11 29.74 1007 10 16 N/A
8:35 pm 20:35 Cloudy 50 10.2 47 8.5 89 89 ENE 8 13 29.73 1007 10 16 N/A
8:55 pm 20:55 Cloudy 51 10.7 46 7.6 81 81 ENE 8 13 29.70 1006 10 16 N/A
9:15 pm 21:15 Cloudy 52 11 45 7.2 78 78 ENE 7 11 29.70 1006 10 16 N/A
9:35 pm 21:35 Cloudy 52 11.2 45 7.1 76 76 E 6 9 29.72 1006 10 16 N/A
9:55 pm 21:55 Cloudy 52 11 45 7.3 78 78 E 6 9 29.72 1007 10 16 N/A
10:15 pm 22:15 Cloudy 52 11.1 45 7.3 78 78 E 10 17 29.71 1006 10 16 N/A
10:35 pm 22:35 Cloudy 52 11.2 46 7.8 80 80 E 8 13 29.71 1006 10 16 N/A
10:55 pm 22:55 Cloudy 52 11.1 46 8 81 81 E 10 17 29.70 1006 10 16 N/A
11:15 pm 23:15 Cloudy 52 11 47 8.3 84 84 E 10 17 29.70 1006 10 16 N/A
11:35 pm 23:35 Cloudy with Light Rain 51 10.5 48 8.7 89 89 E 9 15 29.71 1006 5 8 N/A
11:55 pm 23:55 Cloudy with Drizzle 50 10 48 9.1 94 94 E 8 13 29.71 1006 3 4 N/A

Powered by AerisWeather